Regional Weather Roundup
Issued by NWS

Home | Current Version | Previous Version | Graphics & Text | Print | Product List | Glossary On
Versions: 1 2 3 4 5 6 7 8 9 10 11 12 13 14 15 16 17 18 19 20 21 22 23 24 25 26 27 28
000
ASUS45 KPSR 260910
RWRAZ

ARIZONA HOURLY REGIONAL WEATHER ROUNDUP
NATIONAL WEATHER SERVICE PHOENIX AZ
200 AM MST WED APR 26 2017

NOTE: FAIR INDICATES FEW OR NO CLOUDS BELOW 12,000 FEET WITH NO
SIGNIFICANT WEATHER AND/OR OBSTRUCTIONS TO VISIBILITY.

AZZ001>003-036-261000-
NORTHWEST ARIZONA

CITY           SKY/WX    TMP DP  RH WIND       PRES   REMARKS
BULLHEAD CITY  CLEAR     66  18  15 CALM      29.82S
KINGMAN        CLEAR     45  19  35 SW3       29.91S
$$

AZZ004>008-015-016-018-261000-
NORTH CENTRAL ARIZONA

CITY           SKY/WX    TMP DP  RH WIND       PRES   REMARKS
GRAND CANYON   CLEAR     26  15  63 NE7       29.98F WCI  18
WILLIAMS       CLEAR     28  16  59 CALM      29.98F
PRESCOTT       CLEAR     46  20  35 W8        29.95F
FLAGSTAFF      CLEAR     29  15  56 CALM      29.97S
PAYSON         CLEAR     48  19  32 N6        29.94F
PAGE           CLEAR     51  20  29 W5        29.91S
$$

AZZ009>014-017-261000-
NORTHEAST ARIZONA

CITY           SKY/WX    TMP DP  RH WIND       PRES   REMARKS
WINSLOW        CLEAR     38  17  42 SW5       29.93F WCI  34
SAINT JOHNS    CLEAR     39  25  57 W9        29.92F WCI  33
WINDOW ROCK    CLEAR     32  22  66 E3        29.92F
SHOW LOW       CLEAR     32  16  51 SE3       29.96F
$$

AZZ540-542>544-546-548-261000-
GREATER PHOENIX AREA

CITY           SKY/WX    TMP DP  RH WIND       PRES   REMARKS
PHOENIX        PTCLDY    71  28  20 W3        29.77S
BUCKEYE        PTCLDY    64  21  19 N10       29.79S
LUKE AFB       PTCLDY    65  28  24 N9        29.77F
DEER VALLEY    CLEAR     69  21  16 N18       29.78S
SCOTTSDALE     CLEAR     69  19  15 N6        29.79F
MESA-GATEWAY   CLEAR     66  30  26 NW7       29.79S
$$

AZZ539-553-261000-
SOUTHWEST MARICOPA COUNTY AND PINAL COUNTY

CITY           SKY/WX    TMP DP  RH WIND       PRES   REMARKS
CASA GRANDE    CLEAR     67  28  23 S7        29.79F
GILA BEND      FAIR      64  25  23 S7        29.77S
$$

AZZ503-504-507>509-261000-
SOUTHEAST ARIZONA

CITY           SKY/WX    TMP DP  RH WIND       PRES   REMARKS
TUCSON         CLEAR     63  35  35 SW6       29.85F
DAVIS-MONTHAN  PTCLDY    62  35  36 SW5       29.84F
NOGALES        PTCLDY    53  35  50 E7        29.91F
SIERRA VISTA   PTCLDY    58  31  35 W16       29.92F
SAFFORD        CLEAR     60  19  20 NW9       29.80S
$$

AZZ532-261000-
SOUTHWEST ARIZONA

CITY           SKY/WX    TMP DP  RH WIND       PRES   REMARKS
YUMA           PTCLDY    68  48  48 CALM      29.78F
$$

CAZ041-043-047-048-061-525>527-560>570-261000-
SOUTHERN CALIFORNIA

CITY           SKY/WX    TMP DP  RH WIND       PRES   REMARKS
DOWNTOWN L.A.  CLEAR     63  51  65 VRB5      29.89S
L.A. AIRPORT   MOCLDY    62  51  67 E8        29.89S
SAN DIEGO      MOCLDY    62  56  80 CALM      29.91F
BURBANK        PTCLDY    62  44  51 CALM      29.90S
ONTARIO        MOCLDY    59  45  59 CALM      29.88F
RIVERSIDE      MOCLDY    57  46  66 SE3       29.88F
PALM SPRINGS   PTCLDY    70  45  40 W3        29.83F
EL CENTRO NAS  PTCLDY    65  44  46 NW7       29.80S
IMPERIAL       PTCLDY    62  48  60 W3        29.78S
BLYTHE         PTCLDY    70  33  25 NW9       29.80R
NEEDLES        CLEAR     73  27  18 W13       29.82S
$$

NVZ020-UTZ003-261000-
SOUTHERN NEVADA-UTAH

CITY           SKY/WX    TMP DP  RH WIND       PRES   REMARKS
LAS VEGAS      PTCLDY    62  14  15 SW3       29.86S
SALT LAKE CITY MOCLDY    44  36  73 SE9       29.91F
$$

NMZ009-TXZ055-261000-
NEW MEXICO-WEST TEXAS

CITY           SKY/WX    TMP DP  RH WIND       PRES   REMARKS
ALBUQUERQUE    MOCLDY    45  31  58 NE8       29.85R
EL PASO        PTCLDY    59  32  36 NE16      29.80R
$$


........................KEY........................
SKY/WX - SKY CONDITION/WEATHER
TMP    - TEMPERATURE IN FAHRENHEIT
DP     - DEW POINT IN FAHRENHEIT
RH     - RELATIVE HUMIDITY IN PERCENT
WIND   - DIRECTION AND SPEED IN MILES PER HOUR (MPH)
VRB    - VARIABLE WIND DIRECTION
PRES   - MEAN SEA LEVEL PRESSURE IN INCHES OF MERCURY
         F - FALLING PRESSURE   R - RISING PRESSURE
         S - STEADY PRESSURE
VSB    - VISIBILITY IN MILES
HX     - HEAT INDEX IN FAHRENHEIT
WCI    - WIND CHILL INDEX IN FAHRENHEIT
TC     - TEMPERATURE IN CELSIUS WHICH IS ALSO KNOWN AS
         TEMPERATURE IN CENTIGRADE
AFB    - AIR FORCE BASE
         LUKE AFB IS LUKE AIR FORCE BASE
         DAVIS-MONTHAN IS DAVIS-MONTHAN AIR FORCE BASE
NAS    - NAVAL AIR STATION
         EL CENTRO NAS IS EL CENTRO NAVAL AIR STATION
N/A    - NOT AVAILABLE





USA.gov is the U.S. government's official web portal to all federal, state and local government web resources and services.